KINEIS-2A

Last updated on Wed Oct 22 2025 00:02:42 GMT+0000 (Coordinated Universal Time)

1 62932U 25028E 25294.42370674 .00002727 00000+0 43904-3 0 9994 2 62932 98.0176 346.6106 0002591 173.3931 186.7311 14.72315427 37479
UTC large
Height (km)
Speed (km/s)
/
Latitude / Longitude
Inclination (degrees)
Orbital Period (minutes)
Azimuth
Elevation
Range (km)
Doppler Factor

Next 0 passes for location: London (51.5072 / 0.1276)

Sorry there are no passes over London.